Location: Campestrin
(46.4667°N, 11.7167°E)
Time: 09:43:49
(UTC+00:00)

Cosmos 1980 - Pass Details

Date: 18 April 2021
Orbit: 838 x 848 km, 71.0° (Epoch: 06 May)

Event Time Altitude Azimuth Distance (km) Brightness Sun altitude
Rises 20:29:47 0° 330° (NNW) 3,418 8.2 -21.9°
Reaches altitude 10° 20:32:15 10° 328° (NNW) 2,480 7.2 -22.2°
Maximum altitude 20:37:52 62° 249° (WSW) 953 4.0 -22.8°
Enters shadow 20:39:45 40° 187° (S) 1,228 4.2 -23.0°
